Showing default

SKYSAT C8, 42990

Orbit data source: Space-Track

SKYSAT C8, 42990 is a payload satellite owned by Terra Bella (US) in SSO that was launched on Tue, 31 Oct 2017 UTC via a MINOTAUR-C 3210 launch vehicle from the Air Force Western Test Range (AFWTR). Payload-class satellites include a variety of spacecraft equipped with specific instruments for various scientific and technological missions. These include communications satellites like Starlink; space stations such as the ISS; scientific satellites like the Hubble; Earth observation satellites from companies like Planet Labs, Umbra, and HawkEye 360; GPS; miniature CubeSats for education and research; and military/defense satellites.

Loading next visibility...
Identifier
42990, 2017-068D
Orbit
SSO
Country
Flag of USUS
Related business
Manufacturer
Maxar SSL
Mission
Operational Commercial Imaging
Bus & Motor
SKYSAT-GEN2, Unknown motor
Mass
110 kg wet, 110 kg dry
Launch date (UTC)
2017-10-31 (9 years ago)
Launch vehicle
MINOTAUR-C 3210
Launch site
Air Force Western Test Range (AFWTR)
Object type
Payload
Rocket body
Debris
Shape & HBR
Box, 1.0 m
Radar Cross Section
0.888 m², Medium (>0.1 m² and < 1m²)

Expand to show TLE details & history
Last TLE update: 12 hours ago

TLE from 12 hours ago
0 SKYSAT C8
1 42990U 17068D   26263.32968435  .00007757  00000-0  20552-3 0  9998
2 42990  97.4647  41.4607 0001494  88.6311 271.5105 15.38632909496938
Epoch: 2026-09-20T07:54Z
TLE epoch observation values (Epoch: 2026-09-20T07:54:44.727Z)
Latitude
-0.00007°
Longitude
-76.45108°
Altitude
453.238 km
Speed
7.641 km/s
True Right ascension
02h 45m 50s
True Declination
0° 00' 00"
Sunlit
Object was in full shadow at epoch
Visualization orbit readout
Latitude
Unknown
Longitude
Unknown
Altitude
Unknown
Speed
Unknown
Apparent Right ascension
Unknown
Apparent Declination
Unknown
Sunlit
N/A
Visualization observer readout
Local Sidereal Time
13:02:00
Azimuth
Unknown
Elevation
Unknown
Doppler factor
Unknown
Orbital elements
Apogee altitude
448.114 km
Perigee altitude
446.075 km
Semi-major axis
6,825.232 km
Eccentricity
0.00015
Inclination
97.4647°
RAAN
41.4607°
Arg. of periapsis
88.6311°
True anomaly
271.49339°
Mean anomaly
271.5105°
Eccentric anomaly
271.50194°
Mean motion
3.84917 °/min
Orbital period
93.53 mins
BSTAR
0.00020552
Loading maneuver chart data...
Computing Atmospheric mass density...
Loading historical data...
Loading historical data...
Loading historical data...
Loading historical data...
Loading historical data...
Loading historical data...
Loading historical data...

Documentation

Showing up to 5 results
|